Regional Weather Roundup
Issued by NWS

Home | Current Version | Previous Version | Graphics & Text | Print | Product List | Glossary On
Versions: 1 2 3 4 5 6 7 8 9 10 11 12 13 14 15 16 17 18 19 20 21 22 23 24 25 26 27 28 29 30 31 32 33 34 35 36 37 38 39 40 41 42 43 44 45 46 47 48 49 50
000
ASUS43 KMKX 200911
RWRWI

WISCONSIN REGIONAL WEATHER ROUNDUP
NATIONAL WEATHER SERVICE MILWAUKEE/SULLIVAN WI
300 AM CST SAT DEC 20 2014

NOTE: "FAIR" INDICATES FEW OR NO CLOUDS BELOW 12,000 FEET WITH NO
SIGNIFICANT WEATHER AND/OR OBSTRUCTIONS TO VISIBILITY.

WIZ001-002-006>008-014>016-023>028-201000-
NORTHWEST WISCONSIN

CITY           SKY/WX    TMP DP  RH WIND       PRES   REMARKS
SUPERIOR ARPT  CLOUDY    28  24  88 S5        30.17S WCI  22
ASHLAND        CLOUDY    26  22  84 S3        30.19S
HAYWARD        CLOUDY    25  22  88 S7        30.17R WCI  17
SIREN          CLOUDY    28  24  84 S7        30.16S WCI  20
CUMBERLAND     CLOUDY    27  23  86 S8        30.16F WCI  18
RICE LAKE      CLOUDY    27  23  84 SE7       30.19F WCI  20
CHETEK         CLOUDY    26  23  87 SE5       30.19S WCI  21
LADYSMITH      CLOUDY    26  23  89 SE3       30.21S
EAU CLAIRE     CLOUDY    28  21  75 S7        30.20S WCI  21
MENOMONIE      CLOUDY    29  24  80 SE5       30.21R WCI  24
NEW RICHMOND   CLOUDY    28  25  89 S7        30.18S WCI  21
OSCEOLA        CLOUDY    29  25  86 SE10      30.19F WCI  20
$$

WIZ003>005-009-010-017-018-201000-
NORTH CENTRAL WISCONSIN

CITY           SKY/WX    TMP DP  RH WIND       PRES   REMARKS
MANITOWISH WTR CLOUDY    22  21  97 S5        30.17R WCI  16
ARBOR VITAE    CLOUDY    23  21  91 S7        30.18R WCI  15
WOODRUFF       CLOUDY    23  21  91 S7        30.18R WCI  15
RHINELANDER    CLOUDY    20  18  92 S5        30.19S WCI  13
EAGLE RIVER    CLOUDY    20  19  98 CALM      30.17S
LAND O LAKES   CLOUDY    19  18  96 CALM      30.18S
PHILLIPS       CLOUDY    23  21  93 S3        30.18R
TOMAHAWK       CLOUDY    23  21  93 CALM      30.20S FOG
MEDFORD        CLOUDY    23  21  93 S7        30.19S FOG     WCI  15
MERRILL        CLOUDY    23  22  93 CALM      30.21S
$$

WIZ029-030-035-036-043>047-201000-
CENTRAL WISCONSIN

CITY           SKY/WX    TMP DP  RH WIND       PRES   REMARKS
WAUSAU         CLOUDY    24  21  88 S6        30.21S WCI  17
MOSINEE        CLOUDY    23  23 100 S3        30.23S
MARSHFIELD     CLOUDY    24  21  88 S6        30.21S FOG     WCI  17
STEVENS POINT  CLOUDY    22  19  89 S3        30.25R
WAUPACA        CLOUDY    26  23  86 CALM      30.27R
WAUTOMA        CLOUDY    26  22  85 CALM      30.27R
WISC RAPIDS    CLOUDY    23  19  85 S5        30.26R WCI  17
CAMP DOUGLAS   CLOUDY    25  25  99 SE6       30.24S WCI  18
$$

WIZ011>013-019>022-031-037>040-048>050-201000-
NORTHEAST WISCONSIN

CITY           SKY/WX    TMP DP  RH WIND       PRES   REMARKS
ANTIGO         CLOUDY    20  19  96 SW5       30.20S WCI  14
SHAWANO        FAIR      19  16  90 CALM      30.27S
OCONTO         CLOUDY    15  15  97 CALM      30.28S
STURGEON BAY   CLOUDY    21  18  86 CALM      30.28S
GREEN BAY      CLOUDY    22  19  89 CALM      30.28R
MANITOWOC      CLOUDY    28  23  81 NW5       30.27R WCI  23
APPLETON       MOCLDY    21  18  86 CALM      30.27R
CLINTONVILLE   MOCLDY    18  16  93 CALM      30.26S
OSHKOSH        MOCLDY    21  17  84 CALM      30.27R
$$

WIZ032>034-041-042-053>061-201000-
SOUTHWEST WISCONSIN

CITY           SKY/WX    TMP DP  RH WIND       PRES   REMARKS
LA CROSSE      CLOUDY    30  22  72 S8        30.23S WCI  22
SPARTA         CLOUDY    28  22  77 SE3       30.25S
VIROQUA        CLOUDY    27  24  89 S6        30.21S WCI  20
BOSCOBEL       CLOUDY    29  23  78 CALM      30.26S
PRAIRIE DU CHI CLOUDY    28  23  80 E3        30.25F
PLATTEVILLE    CLOUDY    27  25  91 CALM      30.25F
$$

WIZ056-057-062-063-064-067-068-201000-
SOUTH CENTRAL WISCONSIN

CITY           SKY/WX    TMP DP  RH WIND       PRES   REMARKS
REEDSBURG      CLOUDY    26  23  90 CALM      30.25S
BARABOO/DELLS  CLOUDY    25  22  87 CALM      30.25S FOG
LONE ROCK      CLOUDY    30  23  75 SE3       30.27R
MINERAL POINT  LGT SNOW  28  27  93 SE3       30.24S
MADISON        CLOUDY    27  21  78 S5        30.26S WCI  22
MIDDLETON      CLOUDY    28  24  84 S5        30.26F WCI  23
WATERTOWN      CLOUDY    23  22  95 CALM      30.27S
MONROE         CLOUDY    27  27 100 CALM      30.25S
JANESVILLE     CLOUDY    28  25  86 CALM      30.28R
$$

WIZ051-052-058>065-066-070>072-201000-
SOUTHEAST WISCONSIN

CITY           SKY/WX    TMP DP  RH WIND       PRES   REMARKS
MILWAUKEE      CLOUDY    28  19  69 W7        30.28R WCI  21
WAUKESHA       CLOUDY    25  19  80 W3        30.28R
MILWAUKEE/TIMM CLOUDY    27  19  74 SW5       30.28S WCI  21
RACINE         CLOUDY    28  21  75 W3        30.29R
BURLINGTON     MOCLDY    24  19  83 W3        30.28S
KENOSHA        CLOUDY    27  21  78 W5        30.28R WCI  22
FOND DU LAC    MOCLDY    20  16  84 CALM      30.27R
SHEBOYGAN      CLOUDY    27  21  78 W7        30.27R WCI  19
WEST BEND      CLOUDY    25  21  86 CALM      30.26S
JUNEAU         CLOUDY    22  20  91 CALM      30.27S
$$

LSZ147-162-201000-
LAKE SUPERIOR

STATION/POSITION TIME  TEMP    WIND        PRES    WAVE
                       AIR SEA DIR/SP/G            HT/PER
                 (UTC) (F)     (DEG/KT/KT) (MB)    (FT/S)
DEVILS ISLAND    0900   28     180/  4/  6 1023.2R
PORT WING        0800   27     180/  4/  8 1021.7F
SAXON HARBOR     0800   27     180/  4/  7 1022.4R
$$

LMZ867-665-643>646-201000-
LAKE MICHIGAN

STATION/POSITION TIME  TEMP    WIND        PRES    WAVE
                       AIR SEA DIR/SP/G            HT/PER
                 (UTC) (F)     (DEG/KT/KT) (MB)    (FT/S)
CHAMBERS ISLAND  0800   24     230/  2/  4 1025.1S
NORTHPORT PIER   0826   23     180/  1/  4 1025.1S
SISTER BAY       0813             CALM       N/A
ALGOMA LAKESHORE 0659          340/  7/  8   N/A
KEWAUNEE LAKESHO 0800   26     310/  1/  4 1023.9F
SHEBOYGAN LAKESH 0900   29 33  270/  6/  7 1026.1R
PORT WASHINGTON  0800   28     280/  2/  3 1025.7R
MILWAUKEE LAKESH 0800   29     230/  6/  7   N/A
KENOSHA   LAKESH 0900   28     290/  6/  8 1025.4R
$$

TC  - TEMPERATURE IN CELSIUS
VSB - VISIBILITY IN STATUTE MILES
WCI - WIND CHILL INDEX
HX  - HEAT INDEX



USA.gov is the U.S. government's official web portal to all federal, state and local government web resources and services.